WXM80 ListenWXM80 Stop

You find our weather info also at:

UK Metoffice

WeatherCloud

Weather Underground

Northeastern Weather Network

AWEKAS

Citizen Weather Observer Program (CWOP)

HAMweather, WeatherForYou, PWS Weather


Weather Underground History page Text

Daily Summary for January 6, 2018 Units:  English    Metric   Both
« Previous Day
Next Day »
Daily Weekly Monthly Yearly Custom
  High: Low: Average:
Temperature: 13.5 °F 8.4 °F 10.4 °F
Dew Point: 0.0 °F -2.8 °F -1.2 °F
Humidity: 65 % 51 % 59 %
Wind Speed: 17.6 mph 3.3 mph 9.1 mph
Wind Gust: 34.5 mph - -
Wind:- - WNW
Pressure: 30.41 in 30.02 in -
Precipitation: 0.00 in    
Historical Graphs
 
 
Tabular Data for January 6, 2018
Time Temperature Dew Point Pressure Wind Wind Speed Wind Gust Humidity Rainfall Rate (Hourly)
00:00 10.3 °F -0.2 °F 30.03 in West 7.0 mph 12.0 mph 62 % 0.00 in
00:05 10.2 °F -0.6 °F 30.03 in West 13.5 mph 25.0 mph 61 % 0.00 in
00:09 10.2 °F -0.2 °F 30.03 in WSW 8.5 mph 13.0 mph 62 % 0.00 in
00:14 10.1 °F -0.3 °F 30.03 in West 6.6 mph 20.0 mph 62 % 0.00 in
00:18 10.1 °F 0.0 °F 30.02 in West 8.2 mph 12.7 mph 63 % 0.00 in
00:23 10.1 °F -0.3 °F 30.03 in West 10.6 mph 17.3 mph 62 % 0.00 in
00:28 10.1 °F -0.7 °F 30.03 in West 8.9 mph 19.6 mph 61 % 0.00 in
00:33 10.0 °F -0.4 °F 30.03 in WSW 10.3 mph 17.3 mph 62 % 0.00 in
00:39 9.9 °F -1.2 °F 30.03 in NW 8.1 mph 19.6 mph 60 % 0.00 in
00:44 9.9 °F -0.5 °F 30.03 in WSW 13.3 mph 26.5 mph 62 % 0.00 in
00:49 9.9 °F -0.5 °F 30.04 in WSW 6.5 mph 11.5 mph 62 % 0.00 in
00:54 9.9 °F -0.5 °F 30.04 in WSW 8.8 mph 13.8 mph 62 % 0.00 in
00:59 9.8 °F -0.6 °F 30.04 in SSW 6.4 mph 15.0 mph 62 % 0.00 in
01:05 9.8 °F -0.6 °F 30.04 in NW 8.9 mph 19.6 mph 62 % 0.00 in
01:10 9.9 °F -0.5 °F 30.05 in WSW 10.6 mph 23.0 mph 62 % 0.00 in
01:15 9.8 °F -0.3 °F 30.05 in NW 11.7 mph 20.0 mph 63 % 0.00 in
01:20 9.8 °F -1.0 °F 30.05 in WSW 9.8 mph 23.0 mph 61 % 0.00 in
01:25 9.8 °F -1.0 °F 30.04 in West 6.8 mph 23.0 mph 61 % 0.00 in
01:30 9.8 °F -0.6 °F 30.04 in WNW 11.1 mph 19.6 mph 62 % 0.00 in
01:35 9.8 °F -0.6 °F 30.05 in NW 13.6 mph 20.7 mph 62 % 0.00 in
01:38 9.8 °F -1.3 °F 30.05 in West 9.3 mph 23.0 mph 60 % 0.00 in
01:41 9.7 °F -1.4 °F 30.05 in West 10.4 mph 20.7 mph 60 % 0.00 in
01:46 9.8 °F -1.3 °F 30.05 in WNW 13.0 mph 28.8 mph 60 % 0.00 in
01:51 9.7 °F -1.4 °F 30.06 in WNW 8.6 mph 12.7 mph 60 % 0.00 in
01:56 9.7 °F -1.4 °F 30.06 in West 13.1 mph 24.2 mph 60 % 0.00 in
01:59 9.7 °F -1.1 °F 30.06 in WNW 7.6 mph 11.5 mph 61 % 0.00 in
02:01 9.6 °F -1.2 °F 30.06 in WNW 9.7 mph 19.0 mph 61 % 0.00 in
02:06 9.6 °F -1.5 °F 30.06 in WNW 7.0 mph 19.6 mph 60 % 0.00 in
02:11 9.6 °F -1.2 °F 30.06 in NW 11.0 mph 26.5 mph 61 % 0.00 in
02:16 9.5 °F -1.3 °F 30.07 in NW 8.2 mph 15.0 mph 61 % 0.00 in
02:21 9.5 °F -1.3 °F 30.07 in West 8.8 mph 19.6 mph 61 % 0.00 in
02:27 9.5 °F -1.6 °F 30.08 in West 8.0 mph 26.5 mph 60 % 0.00 in
02:30 9.5 °F -1.6 °F 30.08 in West 7.5 mph 12.0 mph 60 % 0.00 in
02:35 9.5 °F -1.6 °F 30.08 in WSW 8.7 mph 20.7 mph 60 % 0.00 in
02:41 9.5 °F -1.6 °F 30.08 in NW 8.9 mph 16.1 mph 60 % 0.00 in
02:46 9.4 °F -1.7 °F 30.08 in WSW 7.7 mph 12.7 mph 60 % 0.00 in
02:47 9.4 °F -1.4 °F 30.08 in SW 7.0 mph 14.0 mph 61 % 0.00 in
02:52 9.4 °F -1.4 °F 30.08 in WSW 8.8 mph 15.0 mph 61 % 0.00 in
02:57 9.4 °F -1.4 °F 30.08 in West 6.0 mph 17.0 mph 61 % 0.00 in
03:02 9.4 °F -1.7 °F 30.08 in WNW 10.4 mph 16.1 mph 60 % 0.00 in
03:05 9.4 °F -1.4 °F 30.08 in WSW 10.2 mph 15.0 mph 61 % 0.00 in
03:11 9.3 °F -2.2 °F 30.08 in WSW 7.6 mph 19.6 mph 59 % 0.00 in
03:16 9.2 °F -1.9 °F 30.09 in WNW 9.5 mph 18.4 mph 60 % 0.00 in
03:21 9.2 °F -1.9 °F 30.09 in West 7.6 mph 12.7 mph 60 % 0.00 in
03:26 9.1 °F -2.0 °F 30.08 in WNW 7.7 mph 17.3 mph 60 % 0.00 in
03:31 9.1 °F -1.6 °F 30.08 in WNW 11.5 mph 20.0 mph 61 % 0.00 in
03:36 9.1 °F -2.3 °F 30.09 in NW 12.1 mph 21.9 mph 59 % 0.00 in
03:42 9.1 °F -2.0 °F 30.09 in SW 9.1 mph 16.1 mph 60 % 0.00 in
03:47 9.1 °F -1.6 °F 30.08 in West 9.6 mph 18.4 mph 61 % 0.00 in
03:52 9.0 °F -1.7 °F 30.09 in West 9.4 mph 15.0 mph 61 % 0.00 in
03:57 9.1 °F -1.6 °F 30.09 in NNW 8.1 mph 18.4 mph 61 % 0.00 in
04:02 9.1 °F -1.6 °F 30.09 in WNW 8.2 mph 15.0 mph 61 % 0.00 in
04:07 9.1 °F -1.6 °F 30.09 in WNW 8.2 mph 17.3 mph 61 % 0.00 in
04:12 9.2 °F -1.5 °F 30.09 in WSW 7.1 mph 12.7 mph 61 % 0.00 in
04:17 9.1 °F -2.0 °F 30.09 in WSW 6.7 mph 19.6 mph 60 % 0.00 in
04:22 9.2 °F -1.5 °F 30.09 in West 11.7 mph 17.3 mph 61 % 0.00 in
04:27 9.2 °F -1.5 °F 30.09 in NW 14.8 mph 16.0 mph 61 % 0.00 in
04:31 9.2 °F -1.9 °F 30.09 in WSW 8.9 mph 20.7 mph 60 % 0.00 in
04:36 9.2 °F -1.5 °F 30.09 in West 10.2 mph 19.6 mph 61 % 0.00 in
04:41 9.2 °F -1.5 °F 30.10 in WNW 6.9 mph 13.8 mph 61 % 0.00 in
04:46 9.2 °F -1.5 °F 30.10 in NW 10.5 mph 16.1 mph 61 % 0.00 in
04:51 9.3 °F -1.4 °F 30.10 in WNW 8.9 mph 17.0 mph 61 % 0.00 in
04:56 9.4 °F -1.4 °F 30.09 in WNW 10.2 mph 27.0 mph 61 % 0.00 in
04:58 9.4 °F -1.4 °F 30.09 in West 10.1 mph 20.0 mph 61 % 0.00 in
05:03 9.6 °F -0.8 °F 30.10 in West 8.4 mph 25.3 mph 62 % 0.00 in
05:07 9.6 °F -0.5 °F 30.10 in West 8.5 mph 9.2 mph 63 % 0.00 in
05:12 9.6 °F -0.8 °F 30.10 in SSW 9.6 mph 20.7 mph 62 % 0.00 in
05:14 9.6 °F -0.8 °F 30.10 in West 11.1 mph 19.6 mph 62 % 0.00 in
05:19 9.6 °F -1.5 °F 30.10 in WSW 10.3 mph 16.1 mph 60 % 0.00 in
05:24 9.5 °F -1.3 °F 30.10 in West 9.7 mph 18.4 mph 61 % 0.00 in
05:30 9.6 °F -1.2 °F 30.10 in NNW 8.0 mph 15.0 mph 61 % 0.00 in
05:34 9.5 °F -1.3 °F 30.10 in West 5.0 mph 19.6 mph 61 % 0.00 in
05:39 9.5 °F -1.3 °F 30.11 in WNW 13.0 mph 22.0 mph 61 % 0.00 in
05:44 9.6 °F -1.2 °F 30.10 in NW 9.3 mph 23.0 mph 61 % 0.00 in
05:49 9.7 °F -0.4 °F 30.11 in WNW 5.2 mph 17.3 mph 63 % 0.00 in
05:54 9.6 °F -1.2 °F 30.11 in West 7.1 mph 16.1 mph 61 % 0.00 in
05:59 9.5 °F -0.9 °F 30.12 in SSW 13.2 mph 27.6 mph 62 % 0.00 in
06:00 9.6 °F -1.2 °F 30.11 in West 12.3 mph 27.6 mph 61 % 0.00 in
06:05 9.5 °F -1.3 °F 30.12 in WNW 6.3 mph 25.3 mph 61 % 0.00 in
06:08 9.5 °F -1.3 °F 30.12 in West 14.1 mph 19.6 mph 61 % 0.00 in
06:13 9.5 °F -0.6 °F 30.12 in WSW 13.4 mph 24.2 mph 63 % 0.00 in
06:18 9.6 °F -0.8 °F 30.12 in NW 13.9 mph 19.6 mph 62 % 0.00 in
06:23 9.5 °F -0.9 °F 30.12 in SW 17.6 mph 34.5 mph 62 % 0.00 in
06:26 9.5 °F -1.3 °F 30.12 in WNW 11.9 mph 29.9 mph 61 % 0.00 in
06:31 9.5 °F -0.6 °F 30.13 in WSW 7.3 mph 15.0 mph 63 % 0.00 in
06:36 9.5 °F -0.9 °F 30.11 in WSW 11.7 mph 24.2 mph 62 % 0.00 in
06:41 9.6 °F -0.5 °F 30.12 in WSW 15.0 mph 21.9 mph 63 % 0.00 in
06:47 9.5 °F -1.3 °F 30.12 in WSW 8.8 mph 13.0 mph 61 % 0.00 in
06:52 9.5 °F -1.3 °F 30.12 in West 10.5 mph 18.4 mph 61 % 0.00 in
06:56 9.4 °F -1.3 °F 30.12 in WSW 9.0 mph 23.0 mph 61 % 0.00 in
06:57 9.4 °F -1.4 °F 30.12 in WNW 10.7 mph 20.0 mph 61 % 0.00 in
07:03 9.4 °F -1.4 °F 30.13 in West 8.5 mph 16.0 mph 61 % 0.00 in
07:08 9.4 °F -0.7 °F 30.13 in SW 10.0 mph 19.6 mph 63 % 0.00 in
07:13 9.4 °F -1.0 °F 30.14 in WNW 10.9 mph 21.0 mph 62 % 0.00 in
07:16 9.4 °F -1.0 °F 30.13 in WNW 13.1 mph 26.5 mph 62 % 0.00 in
07:21 9.4 °F -0.7 °F 30.14 in WNW 8.2 mph 19.6 mph 63 % 0.00 in
07:23 9.5 °F -0.2 °F 30.14 in WSW 9.7 mph 23.0 mph 64 % 0.00 in
07:29 9.5 °F -0.2 °F 30.14 in WNW 10.0 mph 16.1 mph 64 % 0.00 in
07:34 9.5 °F -0.6 °F 30.15 in NW 4.4 mph 11.5 mph 63 % 0.00 in
07:39 9.5 °F -0.6 °F 30.15 in NW 8.9 mph 23.0 mph 63 % 0.00 in
07:44 9.5 °F -0.6 °F 30.15 in WSW 11.2 mph 25.0 mph 63 % 0.00 in
07:49 9.5 °F -0.6 °F 30.15 in WSW 12.0 mph 18.4 mph 63 % 0.00 in
07:50 9.5 °F -0.6 °F 30.15 in West 11.8 mph 18.4 mph 63 % 0.00 in
07:55 9.6 °F -0.8 °F 30.15 in NW 7.9 mph 11.0 mph 62 % 0.00 in
08:01 9.6 °F -0.5 °F 30.15 in West 9.0 mph 13.8 mph 63 % 0.00 in
08:06 9.6 °F -0.5 °F 30.16 in West 9.0 mph 20.0 mph 63 % 0.00 in
08:07 9.6 °F -0.5 °F 30.16 in WSW 9.7 mph 19.6 mph 63 % 0.00 in
08:12 9.7 °F -0.4 °F 30.16 in West 9.2 mph 17.3 mph 63 % 0.00 in
08:17 9.7 °F -0.7 °F 30.16 in SW 9.7 mph 20.7 mph 62 % 0.00 in
08:22 9.7 °F -0.4 °F 30.17 in WNW 9.7 mph 17.3 mph 63 % 0.00 in
08:27 9.8 °F -0.3 °F 30.17 in WSW 5.9 mph 16.1 mph 63 % 0.00 in
08:29 9.8 °F 0.0 °F 30.17 in WNW 9.9 mph 18.4 mph 64 % 0.00 in
08:34 9.9 °F -0.2 °F 30.17 in SW 10.8 mph 21.9 mph 63 % 0.00 in
08:36 9.9 °F -0.2 °F 30.16 in NW 9.7 mph 20.7 mph 63 % 0.00 in
08:42 9.9 °F -0.5 °F 30.16 in NW 10.0 mph 20.7 mph 62 % 0.00 in
08:47 10.0 °F -0.4 °F 30.17 in West 11.1 mph 19.6 mph 62 % 0.00 in
08:48 10.0 °F -0.4 °F 30.17 in NW 10.2 mph 16.1 mph 62 % 0.00 in
08:53 10.1 °F 0.0 °F 30.17 in SW 8.5 mph 15.0 mph 63 % 0.00 in
08:58 10.2 °F -0.2 °F 30.17 in West 8.0 mph 14.0 mph 62 % 0.00 in
09:01 10.2 °F -0.2 °F 30.17 in West 7.9 mph 15.0 mph 62 % 0.00 in
09:07 10.3 °F -0.2 °F 30.17 in West 8.6 mph 16.1 mph 62 % 0.00 in
09:12 10.3 °F -1.2 °F 30.18 in SW 12.5 mph 20.7 mph 59 % 0.00 in
09:15 10.3 °F -1.6 °F 30.18 in WNW 10.6 mph 19.0 mph 58 % 0.00 in
09:20 10.3 °F -1.2 °F 30.18 in WSW 4.8 mph 18.4 mph 59 % 0.00 in
09:25 10.3 °F -1.6 °F 30.18 in WNW 10.1 mph 21.9 mph 58 % 0.00 in
09:31 10.4 °F -1.8 °F 30.18 in WSW 9.7 mph 19.6 mph 57 % 0.00 in
09:36 10.6 °F -1.3 °F 30.18 in WNW 6.4 mph 17.3 mph 58 % 0.00 in
09:41 10.8 °F -0.7 °F 30.18 in WNW 6.8 mph 13.8 mph 59 % 0.00 in
09:44 10.9 °F -0.6 °F 30.19 in WNW 7.9 mph 16.0 mph 59 % 0.00 in
09:49 11.1 °F -0.8 °F 30.18 in NNW 11.1 mph 18.4 mph 58 % 0.00 in
09:54 11.3 °F -0.6 °F 30.19 in West 11.4 mph 19.6 mph 58 % 0.00 in
09:59 11.4 °F -0.9 °F 30.18 in NW 9.3 mph 13.8 mph 57 % 0.00 in
10:02 11.4 °F -1.3 °F 30.18 in WNW 3.3 mph 18.4 mph 56 % 0.00 in
10:07 11.5 °F -1.2 °F 30.18 in WSW 9.3 mph 17.3 mph 56 % 0.00 in
10:12 11.5 °F -1.6 °F 30.19 in WSW 10.4 mph 19.6 mph 55 % 0.00 in
10:17 11.6 °F -1.1 °F 30.19 in WNW 7.3 mph 17.0 mph 56 % 0.00 in
10:22 11.7 °F -1.0 °F 30.19 in West 6.6 mph 15.0 mph 56 % 0.00 in
10:27 11.8 °F -1.3 °F 30.19 in NNW 10.4 mph 12.7 mph 55 % 0.00 in
10:33 11.8 °F -1.3 °F 30.19 in WNW 9.3 mph 14.0 mph 55 % 0.00 in
10:34 11.8 °F -1.3 °F 30.19 in WNW 11.3 mph 20.7 mph 55 % 0.00 in
10:39 11.6 °F -1.5 °F 30.19 in NW 8.7 mph 21.9 mph 55 % 0.00 in
10:43 11.6 °F -0.7 °F 30.19 in WSW 5.6 mph 13.0 mph 57 % 0.00 in
10:49 11.7 °F -0.6 °F 30.19 in West 10.6 mph 19.6 mph 57 % 0.00 in
10:51 11.7 °F -1.0 °F 30.19 in WNW 8.0 mph 20.0 mph 56 % 0.00 in
10:56 11.8 °F -1.3 °F 30.19 in West 13.9 mph 16.1 mph 55 % 0.00 in
10:58 11.8 °F -1.3 °F 30.19 in West 9.4 mph 17.3 mph 55 % 0.00 in
11:03 11.7 °F -1.0 °F 30.19 in West 8.1 mph 19.6 mph 56 % 0.00 in
11:08 11.7 °F -1.0 °F 30.19 in WNW 10.0 mph 25.3 mph 56 % 0.00 in
11:13 11.6 °F -1.1 °F 30.20 in West 7.5 mph 15.0 mph 56 % 0.00 in
11:17 11.6 °F -0.7 °F 30.20 in NW 12.5 mph 20.0 mph 57 % 0.00 in
11:22 11.6 °F -0.3 °F 30.19 in WNW 11.3 mph 20.7 mph 58 % 0.00 in
11:25 11.6 °F -0.7 °F 30.19 in SW 11.1 mph 16.1 mph 57 % 0.00 in
11:30 11.6 °F -0.3 °F 30.18 in WSW 12.5 mph 20.7 mph 58 % 0.00 in
11:32 11.6 °F -1.1 °F 30.18 in WSW 10.2 mph 18.4 mph 56 % 0.00 in
11:37 11.4 °F -1.7 °F 30.18 in NNW 7.2 mph 18.4 mph 55 % 0.00 in
11:42 11.4 °F -1.3 °F 30.18 in West 9.4 mph 18.4 mph 56 % 0.00 in
11:48 11.4 °F -0.9 °F 30.18 in West 8.4 mph 19.6 mph 57 % 0.00 in
11:53 11.4 °F -1.3 °F 30.19 in NW 10.5 mph 18.4 mph 56 % 0.00 in
11:58 11.4 °F -1.7 °F 30.19 in WNW 10.3 mph 23.0 mph 55 % 0.00 in
12:04 11.5 °F -2.0 °F 30.18 in West 11.6 mph 14.0 mph 54 % 0.00 in
12:10 11.6 °F -1.5 °F 30.18 in WNW 10.4 mph 21.0 mph 55 % 0.00 in
12:15 11.7 °F -1.4 °F 30.18 in West 7.8 mph 18.4 mph 55 % 0.00 in
12:20 11.9 °F -0.8 °F 30.18 in NW 11.2 mph 19.6 mph 56 % 0.00 in
12:25 12.1 °F -1.0 °F 30.18 in West 9.2 mph 18.4 mph 55 % 0.00 in
12:30 12.3 °F -0.8 °F 30.18 in WNW 8.9 mph 18.4 mph 55 % 0.00 in
12:35 12.4 °F -1.5 °F 30.18 in WNW 10.9 mph 18.4 mph 53 % 0.00 in
12:41 12.5 °F -1.8 °F 30.18 in NW 5.0 mph 17.3 mph 52 % 0.00 in
12:46 12.7 °F -0.8 °F 30.18 in WNW 9.7 mph 18.4 mph 54 % 0.00 in
12:51 12.8 °F -1.1 °F 30.18 in West 11.3 mph 17.3 mph 53 % 0.00 in
13:48 13.5 °F -0.9 °F 30.18 in West 8.6 mph 23.0 mph 52 % 0.00 in
13:49 13.5 °F -1.3 °F 30.18 in NW 7.8 mph 19.0 mph 51 % 0.00 in
13:55 13.5 °F -0.9 °F 30.18 in West 8.6 mph 19.6 mph 52 % 0.00 in
14:00 13.5 °F -0.9 °F 30.18 in WSW 11.0 mph 19.6 mph 52 % 0.00 in
14:05 13.5 °F -1.3 °F 30.19 in WNW 6.2 mph 15.0 mph 51 % 0.00 in
14:10 13.4 °F -1.4 °F 30.19 in WSW 14.5 mph 21.0 mph 51 % 0.00 in
14:15 13.4 °F -0.6 °F 30.19 in NNW 9.6 mph 16.1 mph 53 % 0.00 in
14:20 13.5 °F -0.9 °F 30.19 in West 8.3 mph 18.4 mph 52 % 0.00 in
14:21 13.5 °F -0.9 °F 30.19 in West 11.5 mph 19.6 mph 52 % 0.00 in
14:26 13.4 °F -0.6 °F 30.19 in WNW 8.1 mph 15.0 mph 53 % 0.00 in
14:31 13.3 °F -1.1 °F 30.20 in NW 8.3 mph 19.6 mph 52 % 0.00 in
14:36 13.1 °F -0.9 °F 30.20 in West 8.9 mph 18.0 mph 53 % 0.00 in
14:41 13.0 °F -0.6 °F 30.20 in WNW 6.3 mph 11.0 mph 54 % 0.00 in
14:47 12.8 °F -1.5 °F 30.19 in WSW 7.0 mph 15.0 mph 52 % 0.00 in
14:52 12.7 °F -1.6 °F 30.20 in WNW 12.4 mph 29.0 mph 52 % 0.00 in
14:57 12.6 °F -1.3 °F 30.20 in NNW 6.8 mph 6.9 mph 53 % 0.00 in
15:00 12.6 °F -1.3 °F 30.20 in WSW 5.0 mph 11.0 mph 53 % 0.00 in
15:06 12.7 °F -0.8 °F 30.20 in WNW 10.0 mph 20.0 mph 54 % 0.00 in
15:07 12.8 °F -0.7 °F 30.20 in WNW 10.7 mph 17.0 mph 54 % 0.00 in
15:12 12.7 °F -1.2 °F 30.20 in West 8.8 mph 15.0 mph 53 % 0.00 in
15:19 12.6 °F -1.7 °F 30.21 in WSW 9.8 mph 20.7 mph 52 % 0.00 in
15:24 12.6 °F -1.7 °F 30.21 in WSW 7.5 mph 13.8 mph 52 % 0.00 in
15:26 12.6 °F -1.7 °F 30.21 in NW 10.9 mph 19.6 mph 52 % 0.00 in
15:31 12.6 °F -1.3 °F 30.21 in WNW 10.0 mph 17.3 mph 53 % 0.00 in
15:38 12.5 °F -1.4 °F 30.22 in NE 5.6 mph 20.7 mph 53 % 0.00 in
15:40 12.5 °F -0.6 °F 30.22 in West 6.9 mph 16.1 mph 55 % 0.00 in
15:45 12.6 °F -1.3 °F 30.22 in NW 7.4 mph 15.0 mph 53 % 0.00 in
15:50 12.6 °F -1.3 °F 30.22 in West 9.7 mph 19.6 mph 53 % 0.00 in
15:55 12.7 °F -1.2 °F 30.23 in WSW 10.1 mph 21.9 mph 53 % 0.00 in
16:00 12.6 °F -1.7 °F 30.23 in West 8.9 mph 18.4 mph 52 % 0.00 in
16:02 12.6 °F -1.7 °F 30.23 in NW 8.7 mph 15.0 mph 52 % 0.00 in
16:07 12.6 °F -1.3 °F 30.24 in SW 9.0 mph 15.0 mph 53 % 0.00 in
16:12 12.5 °F -1.8 °F 30.24 in West 6.9 mph 19.6 mph 52 % 0.00 in
16:17 12.6 °F -1.3 °F 30.24 in WNW 8.8 mph 13.8 mph 53 % 0.00 in
16:21 12.6 °F -1.7 °F 30.25 in West 9.8 mph 21.0 mph 52 % 0.00 in
16:26 12.5 °F -1.4 °F 30.24 in West 7.9 mph 18.0 mph 53 % 0.00 in
16:32 12.5 °F -1.4 °F 30.25 in WSW 6.2 mph 16.1 mph 53 % 0.00 in
16:37 12.3 °F -2.0 °F 30.26 in West 6.2 mph 11.5 mph 52 % 0.00 in
16:38 12.3 °F -2.0 °F 30.25 in WSW 6.3 mph 12.0 mph 52 % 0.00 in
16:43 12.1 °F -2.6 °F 30.25 in WNW 6.8 mph 17.3 mph 51 % 0.00 in
16:48 12.1 °F -2.2 °F 30.26 in WSW 4.1 mph 11.5 mph 52 % 0.00 in
16:50 12.0 °F -1.9 °F 30.26 in West 8.7 mph 16.1 mph 53 % 0.00 in
16:55 12.0 °F -1.5 °F 30.27 in WNW 8.4 mph 15.0 mph 54 % 0.00 in
17:00 12.1 °F -1.0 °F 30.27 in NW 9.2 mph 18.4 mph 55 % 0.00 in
17:05 12.1 °F -1.8 °F 30.27 in NW 10.5 mph 17.3 mph 53 % 0.00 in
17:10 12.2 °F -1.3 °F 30.27 in WNW 10.8 mph 19.6 mph 54 % 0.00 in
17:15 12.2 °F -0.9 °F 30.27 in West 10.8 mph 23.0 mph 55 % 0.00 in
17:20 12.2 °F -0.5 °F 30.28 in WNW 8.8 mph 13.8 mph 56 % 0.00 in
17:22 12.2 °F -0.5 °F 30.28 in NNW 7.6 mph 17.0 mph 56 % 0.00 in
17:27 12.1 °F -1.4 °F 30.28 in WNW 11.9 mph 21.9 mph 54 % 0.00 in
17:31 12.0 °F -1.5 °F 30.28 in WNW 11.4 mph 22.0 mph 54 % 0.00 in
17:36 11.9 °F -0.8 °F 30.28 in West 8.6 mph 17.0 mph 56 % 0.00 in
17:41 11.9 °F -0.8 °F 30.29 in West 10.8 mph 18.4 mph 56 % 0.00 in
17:45 11.8 °F -0.9 °F 30.29 in WNW 5.8 mph 19.6 mph 56 % 0.00 in
17:50 11.6 °F -1.5 °F 30.29 in NNW 9.8 mph 19.6 mph 55 % 0.00 in
17:55 11.5 °F -1.2 °F 30.29 in North 10.0 mph 24.2 mph 56 % 0.00 in
18:01 11.4 °F -0.9 °F 30.30 in WNW 11.6 mph 17.3 mph 57 % 0.00 in
18:06 11.2 °F -1.5 °F 30.30 in NW 12.8 mph 13.0 mph 56 % 0.00 in
18:09 11.2 °F -1.1 °F 30.30 in NW 7.8 mph 11.5 mph 57 % 0.00 in
18:14 11.1 °F -1.9 °F 30.31 in NNW 12.7 mph 24.2 mph 55 % 0.00 in
18:19 11.0 °F -1.7 °F 30.31 in NW 11.2 mph 16.1 mph 56 % 0.00 in
18:22 10.9 °F -1.7 °F 30.31 in West 8.1 mph 14.0 mph 56 % 0.00 in
18:27 10.8 °F -1.5 °F 30.32 in NW 8.1 mph 16.1 mph 57 % 0.00 in
18:32 10.7 °F -1.9 °F 30.32 in NW 9.2 mph 15.0 mph 56 % 0.00 in
18:33 10.7 °F -1.9 °F 30.32 in WNW 6.0 mph 13.8 mph 56 % 0.00 in
18:38 10.6 °F -1.3 °F 30.32 in NW 6.3 mph 11.5 mph 58 % 0.00 in
18:43 10.4 °F -1.8 °F 30.32 in NW 9.1 mph 15.0 mph 57 % 0.00 in
18:49 10.3 °F -1.9 °F 30.32 in WNW 8.8 mph 17.3 mph 57 % 0.00 in
18:58 10.1 °F -2.1 °F 30.34 in West 10.2 mph 19.0 mph 57 % 0.00 in
19:00 10.1 °F -2.1 °F 30.33 in NW 10.2 mph 17.0 mph 57 % 0.00 in
19:05 10.0 °F -1.9 °F 30.34 in WNW 6.5 mph 11.5 mph 58 % 0.00 in
19:10 9.8 °F -2.4 °F 30.35 in NNW 6.9 mph 11.0 mph 57 % 0.00 in
19:13 9.9 °F -1.9 °F 30.34 in West 5.7 mph 15.0 mph 58 % 0.00 in
19:22 9.5 °F -2.7 °F 30.35 in WNW 10.0 mph 24.0 mph 57 % 0.00 in
19:27 9.4 °F -2.8 °F 30.34 in West 10.8 mph 19.6 mph 57 % 0.00 in
19:33 9.4 °F -2.1 °F 30.34 in WNW 12.4 mph 26.5 mph 59 % 0.00 in
19:38 9.4 °F -2.1 °F 30.34 in WNW 8.0 mph 15.0 mph 59 % 0.00 in
19:41 9.3 °F -2.5 °F 30.34 in NW 9.8 mph 23.0 mph 58 % 0.00 in
19:47 9.2 °F -2.2 °F 30.35 in NW 13.9 mph 19.6 mph 59 % 0.00 in
19:52 9.2 °F -2.6 °F 30.35 in NW 6.0 mph 12.7 mph 58 % 0.00 in
19:56 9.1 °F -2.0 °F 30.35 in NW 13.0 mph 26.5 mph 60 % 0.00 in
20:01 9.1 °F -2.0 °F 30.35 in NW 9.1 mph 18.4 mph 60 % 0.00 in
20:06 9.1 °F -2.0 °F 30.35 in NW 10.1 mph 19.6 mph 60 % 0.00 in
20:11 9.2 °F -1.5 °F 30.36 in NNW 7.9 mph 15.0 mph 61 % 0.00 in
20:16 9.2 °F -1.2 °F 30.36 in NW 10.9 mph 18.4 mph 62 % 0.00 in
20:21 9.1 °F -2.0 °F 30.36 in WNW 9.4 mph 17.3 mph 60 % 0.00 in
20:22 9.1 °F -2.0 °F 30.36 in WNW 9.6 mph 17.3 mph 60 % 0.00 in
20:27 9.1 °F -2.0 °F 30.36 in WNW 9.6 mph 15.0 mph 60 % 0.00 in
20:32 9.0 °F -2.1 °F 30.36 in NW 8.5 mph 18.4 mph 60 % 0.00 in
20:37 9.0 °F -1.4 °F 30.37 in WNW 9.0 mph 16.1 mph 62 % 0.00 in
20:43 9.1 °F -1.0 °F 30.37 in West 5.2 mph 19.6 mph 63 % 0.00 in
20:48 9.1 °F -1.3 °F 30.37 in WNW 11.1 mph 16.1 mph 62 % 0.00 in
20:53 9.1 °F -1.0 °F 30.37 in West 4.4 mph 17.3 mph 63 % 0.00 in
20:57 9.1 °F -1.3 °F 30.37 in West 11.7 mph 17.3 mph 62 % 0.00 in
21:02 9.1 °F -1.3 °F 30.37 in WSW 8.0 mph 19.6 mph 62 % 0.00 in
21:05 9.0 °F -1.4 °F 30.38 in NW 10.7 mph 19.6 mph 62 % 0.00 in
21:10 9.0 °F -1.4 °F 30.37 in West 5.3 mph 9.2 mph 62 % 0.00 in
21:16 9.0 °F -1.4 °F 30.37 in WNW 7.0 mph 16.0 mph 62 % 0.00 in
21:21 9.0 °F -1.1 °F 30.37 in WNW 9.0 mph 20.0 mph 63 % 0.00 in
21:26 8.9 °F -1.4 °F 30.38 in WNW 8.0 mph 22.0 mph 62 % 0.00 in
21:31 8.9 °F -1.1 °F 30.38 in WNW 12.0 mph 20.0 mph 63 % 0.00 in
21:36 8.9 °F -1.5 °F 30.39 in WNW 5.2 mph 13.0 mph 62 % 0.00 in
21:37 8.9 °F -1.5 °F 30.39 in WNW 5.8 mph 13.0 mph 62 % 0.00 in
21:42 8.9 °F -1.1 °F 30.38 in WNW 6.2 mph 16.0 mph 63 % 0.00 in
21:44 8.9 °F -1.1 °F 30.39 in NW 7.5 mph 15.0 mph 63 % 0.00 in
21:46 8.9 °F -1.1 °F 30.39 in NW 6.9 mph 12.0 mph 63 % 0.00 in
21:56 8.8 °F -1.2 °F 30.39 in WNW 8.7 mph 12.7 mph 63 % 0.00 in
22:00 8.8 °F -1.6 °F 30.39 in WNW 9.7 mph 17.3 mph 62 % 0.00 in
22:05 8.7 °F -1.7 °F 30.39 in WNW 11.9 mph 18.4 mph 62 % 0.00 in
22:11 8.7 °F -1.7 °F 30.40 in WNW 9.0 mph 20.0 mph 62 % 0.00 in
22:16 8.7 °F -1.3 °F 30.40 in WSW 5.3 mph 13.8 mph 63 % 0.00 in
22:21 8.7 °F -1.3 °F 30.40 in WNW 7.0 mph 18.0 mph 63 % 0.00 in
22:26 8.9 °F -0.8 °F 30.40 in WNW 8.5 mph 16.1 mph 64 % 0.00 in
22:28 8.9 °F -0.8 °F 30.40 in WNW 9.5 mph 18.4 mph 64 % 0.00 in
22:30 8.9 °F -1.1 °F 30.40 in WNW 9.1 mph 16.1 mph 63 % 0.00 in
22:35 8.8 °F -0.9 °F 30.40 in West 4.3 mph 13.8 mph 64 % 0.00 in
22:41 8.7 °F -1.0 °F 30.39 in WNW 6.0 mph 16.0 mph 64 % 0.00 in
22:45 8.7 °F -1.3 °F 30.39 in WNW 6.7 mph 12.7 mph 63 % 0.00 in
22:50 8.6 °F -1.1 °F 30.40 in WNW 6.0 mph 11.5 mph 64 % 0.00 in
22:56 8.6 °F -1.1 °F 30.40 in WNW 9.0 mph 18.0 mph 64 % 0.00 in
23:01 8.7 °F -1.0 °F 30.40 in WNW 9.6 mph 18.4 mph 64 % 0.00 in
23:06 8.7 °F -1.0 °F 30.40 in WNW 7.1 mph 11.5 mph 64 % 0.00 in
23:11 8.6 °F -0.8 °F 30.40 in WNW 6.3 mph 11.5 mph 65 % 0.00 in
23:13 8.6 °F -0.8 °F 30.40 in WNW 5.7 mph 9.2 mph 65 % 0.00 in
23:16 8.6 °F -0.8 °F 30.40 in WNW 5.6 mph 16.1 mph 65 % 0.00 in
23:21 8.6 °F -1.4 °F 30.40 in NW 4.5 mph 19.6 mph 63 % 0.00 in
23:27 8.5 °F -1.5 °F 30.40 in WNW 7.4 mph 16.1 mph 63 % 0.00 in
23:32 8.5 °F -1.5 °F 30.41 in West 8.2 mph 16.1 mph 63 % 0.00 in
23:37 8.4 °F -1.3 °F 30.41 in WNW 8.9 mph 13.8 mph 64 % 0.00 in
23:39 8.5 °F -1.2 °F 30.41 in NW 4.1 mph 16.1 mph 64 % 0.00 in
23:44 8.4 °F -1.3 °F 30.41 in West 5.8 mph 13.0 mph 64 % 0.00 in
23:49 8.5 °F -0.9 °F 30.41 in WNW 6.1 mph 11.0 mph 65 % 0.00 in
23:54 8.4 °F -1.3 °F 30.41 in NW 5.7 mph 11.5 mph 64 % 0.00 in
Crab Meadow Weather
Compliments of Weather Underground - 3 mb

Script developed by  Jim McMurry - jmcmurry@mwt.net Adapted for the template by  Wim van der Kuil - Leuven-Template.eu

Weather Terms: Advisory - An advisory is issued when a hazardous weather or hydrologic event is occurring, imminent or likely. Advisories are for less serious conditions than warnings, that cause significant inconvenience and if caution is not exercised, could lead to situations that may threaten life or property.